Temperature
6 6 6 6 6 6 6 6 6 5 5 6 6 6 6 6 6 6 6 6 6 6 6 6 6 6 5 5 5 5 4 4 4 4 4 4 4 4
6 6 6 5 6 6 6 6 5 5 5 5 6 6 6 6 6 5 6 6 6 5 5 5 5 5 5 5 5 4 4 4 4 4 4 3 3 3
5 5 5 5 5 5 5 5 5 5 5 5 5 5 5 5 5 5 5 5 5 5 5 5 5 5 5 4 4 4 4 4 4 4 3 3 3 3
5 5 5 5 5 5 5 5 5 5 4 4 5 5 5 5 5 5 5 5 5 4 5 5 4 4 4 4 4 4 4 3 3 3 3 3 2 2
4 4 4 4 4 5 5 4 4 4 4 4 4 4 4 5 5 4 4 4 4 4 4 4 4 4 4 4 3 3 3 3 3 3 3 2 2 2
4 4 4 4 4 4 4 4 4 4 4 4 4 4 4 4 4 4 4 4 4 4 4 4 4 4 4 3 3 3 3 3 3 2 2 2 2 2
4 4 4 4 4 4 4 4 4 3 3 3 3 3 3 3 4 4 3 3 3 3 3 4 3 3 3 3 3 3 2 2 2 2 2 2 2 2
3 3 3 3 3 3 3 3 3 3 3 3 3 3 3 3 3 3 3 3 2 3 3 3 3 3 3 3 2 2 2 2 2 2 2 1 1 2
3 3 3 3 3 3 3 3 3 3 3 3 3 3 3 3 3 3 3 3 2 2 2 2 3 3 3 2 2 2 2 2 2 2 1 1 1 2
2 2 2 2 2 2 2 2 2 2 2 2 3 3 3 3 3 3 2 2 2 2 2 2 2 2 2 2 2 2 2 2 1 1 1 1 1 1
1 1 1 2 2 2 2 2 2 2 2 2 2 2 2 2 2 2 2 2 1 1 1 1 1 1 2 2 2 1 1 1 1 1 1 1 1 1
1 1 1 1 1 1 1 1 1 1 2 2 2 2 2 2 2 2 1 1 1 1 1 1 1 1 1 1 1 1 1 1 1 1 1 1 1 1
0 0 0 1 1 1 1 1 1 1 1 1 1 1 1 1 1 1 1 1 1 1 1 1 1 0 0 0 0 0 0 0 0 0 0 0 0 0
-0 -0 -0 0 0 0 0 0 1 1 1 1 1 1 1 1 1 1 1 1 1 1 1 0 0 0 0 -0 -0 0 0 -0 -0 -0 0 0 0 0
-1 -1 -1 -0 -0 -0 -0 0 0 0 0 0 0 0 0 1 1 1 1 1 1 1 0 0 0 0 0 -0 -0 -0 -0 -0 -0 -0 -0 -0 -0 -0
-1 -1 -1 -1 -1 -1 -1 -0 -0 -0 -0 -0 -0 0 0 0 0 0 0 0 0 0 0 0 0 0 0 -0 -0 -1 -1 -1 -1 -0 -0 -0 -0 -0
-2 -2 -1 -1 -1 -1 -1 -1 -1 -1 -0 -0 -0 -0 -0 -0 -0 -0 -0 -0 -0 -0 -0 0 -0 -0 -0 -0 -1 -1 -1 -1 -1 -1 -1 -1 -0 -1
-2 -2 -2 -2 -2 -2 -2 -1 -1 -1 -1 -1 -1 -1 -1 -1 -1 -1 -0 -0 -1 -1 -1 -0 -0 -0 -1 -1 -1 -1 -1 -1 -1 -1 -1 -1 -1 -1
-2 -2 -2 -2 -2 -2 -2 -2 -1 -1 -1 -1 -1 -1 -1 -1 -1 -1 -1 -1 -1 -1 -1 -1 -1 -1 -1 -2 -1 -1 -1 -1 -1 -1 -1 -1 -1 -1
-3 -3 -2 -2 -2 -2 -2 -2 -2 -2 -2 -2 -2 -1 -1 -1 -1 -1 -1 -1 -1 -1 -1 -1 -1 -1 -1 -1 -2 -1 -1 -2 -2 -2 -2 -2 -1 -1
-3 -3 -3 -3 -2 -2 -2 -2 -2 -2 -2 -2 -2 -2 -2 -2 -2 -2 -2 -2 -2 -2 -2 -2 -2 -2 -2 -2 -2 -2 -1 -2 -2 -2 -2 -2 -2 -1
-4 -3 -3 -3 -3 -3 -2 -3 -2 -2 -2 -2 -2 -2 -2 -2 -2 -2 -2 -2 -2 -2 -2 -2 -2 -2 -2 -2 -2 -2 -2 -1 -2 -2 -2 -2 -2 -2
-4 -4 -3 -3 -3 -3 -3 -3 -3 -3 -2 -2 -2 -2 -2 -2 -2 -2 -2 -2 -2 -2 -2 -2 -2 -2 -2 -2 -2 -2 -2 -2 -2 -2 -2 -2 -2 -2
Wind_Speed
7 7 6 5 5 5 5 5 5 4 4 3 3 4 4 4 4 6 6 6 6 7 7 7 7 7 6 7 7 7 8 9 10 10 11 12 13 14
5 6 6 5 5 5 5 5 6 5 5 3 2 3 4 4 5 6 6 6 7 7 7 7 6 6 6 5 6 7 8 9 9 10 11 12 13 14
6 6 7 7 6 5 5 5 5 5 6 4 3 3 4 4 3 4 5 5 6 6 7 7 6 6 5 5 6 7 8 8 9 9 10 12 12 13
7 6 7 6 7 6 5 6 5 5 6 6 3 3 4 4 4 4 3 4 4 5 6 6 6 5 5 6 6 7 7 7 8 9 10 11 11 12
6 6 7 7 7 6 6 5 5 4 5 4 3 2 2 3 3 3 3 3 3 4 5 5 6 6 6 6 6 6 7 7 7 8 9 10 11 12
5 6 6 7 7 7 6 6 5 4 4 4 4 3 2 3 2 2 2 2 3 3 4 4 5 5 5 5 6 6 6 7 7 8 9 9 10 11
5 5 6 6 7 6 5 5 5 5 4 4 4 3 3 3 3 2 3 2 3 2 3 3 3 4 4 5 5 5 6 7 7 8 8 9 10 10
5 5 5 5 6 7 7 7 7 6 6 5 4 5 5 4 3 3 2 2 3 1 2 4 3 4 4 3 4 5 6 6 7 8 8 9 10 11
4 4 3 4 5 5 6 6 6 7 7 6 6 6 5 4 4 4 4 3 4 3 2 3 3 4 3 3 4 5 6 7 7 7 8 9 10 11
3 4 4 4 4 5 5 5 5 4 4 5 5 6 5 5 5 4 4 3 3 3 2 2 3 4 4 4 3 4 6 7 7 7 8 9 10 10
3 4 4 4 4 5 5 4 3 2 1 2 3 4 4 4 4 3 2 2 2 2 2 2 2 3 4 3 2 4 6 6 6 6 8 8 9 9
3 3 3 4 4 4 5 4 4 3 1 1 1 2 3 4 5 4 4 4 2 2 2 2 1 1 2 2 3 3 4 4 6 6 7 8 9 7
2 2 2 2 2 4 4 4 4 3 2 2 2 2 2 2 2 2 3 3 3 2 2 1 1 1 1 2 3 3 3 4 4 5 5 7 8 7
3 3 2 1 2 2 2 3 3 3 2 2 2 2 2 2 1 2 1 2 2 3 3 2 2 2 2 2 3 3 4 4 4 4 4 6 6 7
2 2 2 2 1 1 1 2 2 2 2 2 2 2 2 2 1 0 1 1 2 2 1 2 2 2 2 2 2 3 3 4 4 4 4 4 4 5
2 2 2 1 0 1 1 1 1 2 2 2 1 1 1 1 1 0 0 0 1 2 2 1 1 2 2 2 3 3 3 3 3 4 4 4 4 4
3 2 1 1 1 1 1 1 0 1 1 1 1 1 0 0 0 1 0 1 1 1 2 2 2 1 1 2 2 2 3 3 3 4 4 4 4 4
3 1 1 1 1 0 0 0 0 0 0 1 1 1 1 1 1 1 0 0 0 1 1 1 1 1 1 1 1 2 2 3 3 3 3 4 4 5
2 1 1 1 1 0 0 0 0 0 0 0 0 0 1 1 1 1 1 0 0 0 1 1 1 1 1 2 2 2 2 3 3 3 3 4 4 5
1 1 1 1 1 0 0 0 0 0 0 0 0 0 0 1 1 1 1 1 1 0 1 1 1 1 2 2 1 2 3 3 3 3 3 4 4 6
3 2 2 1 1 1 1 1 0 0 0 0 0 0 1 1 1 1 1 1 1 1 1 2 2 3 1 0 1 2 3 3 3 3 4 3 4 4
3 3 2 2 1 1 1 1 1 1 1 0 0 0 1 1 1 2 1 1 1 1 1 1 1 1 1 0 1 2 3 4 4 4 3 3 2 2
3 3 3 2 2 1 1 1 1 1 1 1 1 1 1 1 1 1 1 1 1 0 0 0 1 1 1 1 1 2 3 4 4 4 4 5 5 5
Wind_Direction
222 221 227 230 229 233 229 225 225 237 250 243 234 223 225 238 225 241 251 236 246 256 263 265 268 274 279 290 296 301 304 305 306 306 307 309 311 313
228 223 224 226 225 225 224 229 235 236 241 248 249 254 231 239 234 244 251 240 244 251 260 262 264 271 278 283 291 303 307 305 304 304 307 309 310 312
230 225 226 225 225 223 223 228 232 233 241 257 269 259 238 232 239 249 250 242 242 247 258 260 258 262 271 280 289 299 305 304 302 304 308 309 310 314
230 227 227 225 228 226 223 227 229 232 237 248 254 244 252 234 235 253 258 255 252 249 259 261 256 258 270 281 288 297 304 308 307 308 309 310 312 316
236 229 229 226 230 228 227 226 230 234 234 233 246 246 260 245 229 249 256 264 267 259 263 254 253 262 272 278 284 292 298 303 308 310 311 312 314 317
242 237 234 230 230 229 226 225 227 226 218 219 230 236 244 259 233 235 260 273 276 270 269 261 261 262 265 273 281 290 296 300 305 310 312 313 315 318
246 239 235 237 238 237 228 218 215 218 216 217 221 230 240 245 236 234 253 291 286 259 280 269 266 265 260 256 265 283 297 303 305 308 311 313 316 317
245 241 235 235 237 235 233 225 221 219 218 220 227 228 234 246 241 238 241 272 286 254 281 279 272 274 277 271 285 290 298 304 307 308 310 313 314 314
250 250 241 234 233 234 230 229 236 239 229 226 230 232 231 229 230 235 238 248 262 271 274 276 279 279 286 277 290 294 300 306 308 308 309 311 313 314
261 255 251 237 227 229 225 227 235 235 231 232 238 242 239 234 227 232 247 261 289 270 249 261 286 296 305 286 282 295 306 311 313 312 314 316 315 314
267 256 257 248 224 211 211 215 228 245 269 245 259 260 257 237 223 214 219 236 272 280 249 236 280 307 298 287 279 294 303 311 316 317 318 318 318 316
278 267 261 260 218 201 205 209 221 233 230 214 240 251 253 231 221 219 214 222 254 258 220 219 246 317 300 291 304 303 303 307 309 311 318 324 326 323
276 274 269 258 229 208 216 220 215 213 214 217 232 249 251 244 252 255 245 226 235 255 226 214 241 254 254 289 304 308 311 314 313 312 313 322 326 326
278 281 281 286 240 227 226 205 196 205 207 210 226 244 248 256 279 289 278 265 262 254 243 230 224 228 255 286 291 305 312 317 322 323 323 323 322 322
296 318 325 332 277 224 181 187 205 209 203 211 227 249 262 262 268 312 347 18 5 336 257 242 237 237 253 265 275 292 305 310 322 326 324 323 322 324
331 347 356 350 349 111 143 178 224 207 202 212 227 241 244 243 236 271 292 360 1 352 356 330 253 225 259 271 264 278 295 297 312 320 318 319 321 321
326 332 343 341 6 37 41 31 56 143 167 192 203 204 208 221 280 326 302 327 327 327 341 5 16 15 309 287 272 283 297 310 310 314 315 315 319 321
320 300 303 306 292 293 33 29 47 89 165 193 213 206 214 235 268 331 355 211 220 301 329 351 25 11 350 345 313 283 298 311 317 318 317 310 312 320
314 296 293 296 292 276 105 25 344 358 56 168 197 208 215 234 205 177 175 155 219 284 306 306 303 320 323 320 321 331 308 317 319 318 320 312 303 310
326 311 310 310 302 292 323 337 3 17 21 243 223 229 185 194 197 182 182 182 200 255 316 314 299 286 270 271 285 317 329 314 308 308 312 309 307 306
339 333 322 315 316 331 334 341 345 324 299 266 243 232 233 213 199 191 191 204 212 222 267 302 304 307 311 346 340 327 336 337 319 305 307 308 314 324
338 337 337 336 341 350 339 336 333 319 304 284 273 256 239 214 198 198 205 213 222 234 264 302 317 335 354 9 345 331 334 343 344 337 332 319 310 322
335 335 337 338 338 333 316 316 310 298 285 270 267 258 238 217 205 200 207 222 209 184 112 5 353 11 13 14 11 351 346 349 355 3 5 360 346 319
Height
1458 1459 1460 1461 1461 1462 1463 1464 1465 1464 1463 1463 1464 1464 1464 1465 1465 1465 1465 1465 1466 1465 1465 1464 1464 1462 1461 1460 1459 1457 1455 1454 1452 1451 1449 1447 1445 1443
1453 1454 1455 1456 1457 1457 1458 1459 1460 1460 1459 1458 1459 1459 1460 1461 1461 1461 1461 1461 1461 1461 1460 1460 1459 1459 1458 1456 1455 1453 1452 1450 1448 1446 1445 1443 1441 1439
1448 1449 1450 1452 1453 1453 1453 1454 1455 1455 1454 1454 1455 1455 1456 1456 1456 1457 1457 1457 1457 1457 1457 1456 1455 1455 1454 1453 1451 1450 1448 1445 1444 1443 1441 1439 1437 1434
1444 1445 1445 1447 1448 1448 1449 1450 1450 1450 1451 1449 1450 1451 1451 1452 1452 1453 1453 1453 1453 1453 1453 1453 1452 1451 1450 1449 1448 1446 1444 1442 1441 1439 1437 1435 1433 1430
1440 1440 1441 1442 1443 1444 1444 1445 1445 1446 1446 1446 1446 1447 1447 1448 1448 1449 1449 1449 1449 1450 1450 1449 1448 1447 1446 1445 1444 1442 1441 1439 1437 1435 1433 1431 1429 1427
1435 1436 1437 1437 1438 1439 1440 1440 1441 1441 1442 1442 1442 1443 1443 1444 1444 1444 1444 1445 1445 1446 1446 1446 1445 1444 1443 1442 1441 1439 1437 1435 1433 1432 1429 1428 1426 1424
1431 1432 1432 1433 1433 1435 1435 1436 1437 1437 1438 1438 1438 1439 1439 1440 1440 1440 1440 1441 1441 1442 1442 1442 1441 1440 1439 1438 1437 1436 1434 1432 1430 1428 1426 1424 1423 1421
1427 1428 1428 1429 1429 1430 1431 1432 1433 1433 1434 1434 1434 1434 1435 1436 1437 1436 1437 1437 1437 1438 1438 1438 1438 1437 1436 1435 1434 1432 1430 1429 1427 1425 1423 1421 1419 1418
1423 1424 1424 1425 1426 1426 1427 1428 1429 1430 1430 1431 1431 1431 1432 1432 1433 1433 1434 1434 1434 1434 1434 1433 1434 1433 1433 1432 1430 1429 1427 1425 1424 1422 1420 1418 1416 1414
1420 1420 1421 1421 1422 1423 1424 1424 1425 1426 1426 1427 1427 1428 1429 1430 1430 1431 1431 1431 1432 1432 1431 1430 1430 1430 1430 1429 1428 1426 1424 1422 1421 1419 1418 1416 1413 1411
1417 1417 1417 1417 1418 1419 1421 1421 1421 1422 1423 1424 1424 1425 1426 1427 1427 1427 1427 1428 1427 1428 1428 1428 1427 1427 1426 1426 1425 1424 1422 1420 1418 1417 1415 1413 1411 1409
1414 1414 1415 1415 1415 1416 1417 1418 1418 1419 1419 1420 1421 1422 1423 1423 1424 1424 1424 1425 1424 1425 1425 1425 1424 1424 1423 1423 1422 1421 1419 1418 1416 1415 1413 1411 1409 1406
1412 1412 1412 1412 1412 1413 1414 1415 1415 1416 1416 1417 1418 1419 1419 1420 1420 1421 1422 1422 1422 1422 1422 1422 1422 1422 1422 1420 1419 1418 1417 1416 1414 1413 1411 1409 1407 1405
1410 1410 1409 1409 1410 1411 1411 1412 1413 1413 1414 1414 1415 1415 1416 1417 1417 1418 1418 1419 1419 1419 1420 1420 1419 1419 1418 1418 1417 1416 1415 1414 1412 1410 1409 1407 1405 1403
1408 1407 1407 1407 1407 1408 1408 1409 1410 1410 1411 1411 1412 1412 1414 1415 1415 1415 1416 1416 1417 1417 1417 1417 1417 1417 1416 1416 1415 1414 1413 1412 1411 1409 1407 1405 1403 1401
1406 1406 1405 1405 1406 1406 1406 1406 1407 1407 1408 1409 1410 1410 1411 1412 1412 1412 1412 1413 1414 1414 1414 1414 1414 1415 1414 1414 1413 1412 1412 1411 1409 1407 1405 1404 1402 1400
1405 1405 1404 1404 1404 1403 1403 1404 1404 1405 1406 1407 1408 1408 1409 1409 1410 1410 1411 1411 1412 1412 1412 1412 1412 1412 1412 1412 1412 1411 1410 1409 1407 1406 1404 1402 1400 1398
1404 1403 1402 1402 1402 1402 1402 1402 1403 1403 1404 1405 1405 1406 1406 1407 1408 1408 1409 1409 1410 1410 1410 1410 1410 1410 1410 1411 1411 1409 1408 1407 1406 1404 1402 1400 1398 1397
1402 1401 1401 1401 1401 1401 1401 1401 1402 1402 1403 1403 1403 1404 1404 1405 1406 1406 1407 1407 1408 1409 1409 1409 1409 1409 1408 1409 1409 1408 1407 1406 1404 1403 1401 1399 1397 1395
1401 1400 1400 1400 1400 1400 1400 1400 1401 1401 1402 1402 1402 1402 1403 1404 1404 1404 1405 1406 1407 1407 1408 1408 1408 1408 1408 1408 1407 1407 1406 1405 1403 1401 1400 1398 1396 1395
1400 1400 1399 1399 1399 1399 1399 1399 1400 1400 1401 1401 1401 1401 1402 1403 1403 1404 1404 1405 1406 1406 1406 1407 1407 1408 1407 1407 1406 1405 1405 1404 1402 1401 1399 1397 1395 1393
1400 1399 1399 1398 1398 1398 1398 1399 1399 1399 1400 1400 1400 1401 1401 1402 1402 1402 1403 1404 1404 1405 1405 1406 1406 1406 1406 1405 1405 1404 1403 1403 1402 1400 1399 1397 1396 1393
1399 1398 1398 1397 1397 1397 1398 1398 1398 1398 1399 1399 1399 1399 1400 1400 1401 1401 1402 1403 1404 1404 1404 1404 1404 1405 1404 1404 1404 1403 1403 1402 1401 1399 1398 1397 1396 1394